www.pogodaiklimat.ru

Погода и климат >> Архив погоды >> Великобритания >> Кент


ПОГОДА в Кент

  • Прогноз погоды в Кент
  • Монитор погоды в Кент

АРХИВ ПОГОДЫ в Кент

Время (UTC), дата Ветер
(напр.,м/с)
 
Видим.   Явления Облачность Т
(С)
Тd
(С)
f
(%)
Тe
(С)
Тes
(С)
Комфортность P
(гПа)
Po
(гПа)
Тmin
(С)
Tmax
(С)
R
(мм)
R24
(мм)
S
(см)
19 11.09 ЮЗ 4 30 км н/о +17.1 +15.5 90 +17 +17 1021.8 1016.0
20 11.09 ЮЗ 4 27 км н/о +16.6 +15.3 92 +16 +16 1022.5 1016.7
21 11.09 ЮЗ 4 20 км н/о +16.2 +15.2 94 +15 +15 1022.9 1017.0
22 11.09 ЮЗ 4 24 км н/о +16.0 +15.2 95 +15 +15 1023.2 1017.3
23 11.09 ЮЗ 5 40 км н/о +15.8 +14.7 93 +15 +15 1023.7 1017.8
00 12.09 З 5 50 км н/о +15.3 +14.4 94 +14 +14 1024.0 1018.1
01 12.09 З 5 50 км н/о +14.6 +12.9 90 +13 +13 1024.2 1018.3
02 12.09 ЮЗ 5 50 км н/о +14.2 +12.1 87 +13 +13 1024.8 1018.9
03 12.09 ЮЗ 5 50 км н/о +13.7 +12.5 92 +12 +12 1025.0 1019.0
04 12.09 ЮЗ 3 45 км н/о +13.0 +12.1 94 +12 +12 1025.1 1019.2
05 12.09 ЮЗ 3 30 км н/о +12.6 +11.9 95 +11 +11 1025.6 1019.6
06 12.09 З 4 30 км н/о +12.7 +12.1 96 +11 +11 1026.2 1020.2 +12.4
07 12.09 ЮЗ 5 23 км н/о +13.8 +12.8 94 +12 +12 1027.1 1021.1
08 12.09 З 5 30 км н/о +16.3 +13.5 83 +15 +15 1027.6 1021.7
09 12.09 З 6 35 км н/о +18.5 +13.2 71 +19 +19 1027.9 1022.0
10 12.09 ЮЗ 7 28 км н/о +20.0 +13.5 66 +22 +22 комфорт 1028.2 1022.3
11 12.09 ЮЗ 7 29 км н/о +22.2 +15.0 64 +26 +26 душно 1028.2 1022.4
12 12.09 З 6 50 км н/о +21.9 +15.3 66 +25 +25 комфорт 1028.2 1022.4
13 12.09 ЮЗ 7 50 км н/о +22.1 +14.9 64 +26 +26 душно 1028.0 1022.2
14 12.09 ЮЗ 7 45 км н/о +24.0 +14.9 57 +27 +27 жарко 1027.6 1021.8
15 12.09 ЮЗ 8 30 км н/о +23.1 +14.2 57 +27 +27 душно 1027.3 1021.5
16 12.09 ЮЗ 9 40 км н/о +21.6 +14.1 62 +24 +24 комфорт 1027.2 1021.4
17 12.09 ЮЗ 8
{13}
40 км н/о +20.7 +14.4 67 +23 +23 комфорт 1027.4 1021.6
18 12.09 ЮЗ 8 35 км н/о +19.4 +14.7 74 +20 +20 1027.7 1021.9 +24.0
19 12.09 ЮЗ 7 40 км н/о +18.0 +14.7 81 +17 +17 1028.2 1022.3
20 12.09 ЮЗ 5 45 км н/о +17.2 +14.7 85 +17 +17 1028.8 1022.9
21 12.09 ЮЗ 5 45 км н/о +17.7 +14.9 84 +17 +17 1029.3 1023.4
22 12.09 ЮЗ 6 30 км н/о +16.9 +14.6 86 +16 +16 1029.2 1023.3
23 12.09 ЮЗ 5 35 км н/о +16.8 +14.7 87 +16 +16 1029.1 1023.2
00 13.09 ЮЗ 5 40 км н/о +16.9 +14.1 84 +16 +16 1029.4 1023.5
01 13.09 ЮЗ 4 35 км н/о +16.9 +14.2 84 +16 +16 1029.7 1023.8
02 13.09 З 4 35 км н/о +16.9 +14.4 85 +17 +17 1029.6 1023.7
03 13.09 З 4 30 км н/о +17.2 +14.7 85 +17 +17 1030.0 1024.1
04 13.09 З 4 45 км н/о +17.3 +14.9 86 +17 +17 1030.3 1024.3
05 13.09 СЗ 6 25 км н/о +16.8 +15.2 90 +16 +16 1031.2 1025.3
06 13.09 СЗ 6 50 км н/о +16.0 +13.7 86 +15 +15 1032.0 1026.0 +16.0
07 13.09 СЗ 6 35 км н/о +16.1 +13.3 83 +15 +15 1032.6 1026.7
08 13.09 СЗ 6 35 км н/о +15.8 +12.3 80 +14 +14 1033.3 1027.4
09 13.09 С 6 40 км н/о +16.3 +11.9 75 +15 +15 1034.2 1028.3
10 13.09 С 6 50 км н/о +16.9 +12.2 74 +16 +16 1034.7 1028.7
11 13.09 С 5 30 км н/о +18.1 +12.9 72 +18 +18 1034.8 1028.9
12 13.09 СВ 5 45 км н/о +17.2 +11.3 68 +17 +17 1035.2 1029.3
13 13.09 СВ 4 30 км н/о +17.2 +11.6 70 +17 +17 1034.9 1029.0
14 13.09 СВ 3 50 км н/о +18.4 +12.3 68 +19 +19 1035.1 1029.2
15 13.09 СВ 4 35 км н/о +18.4 +11.3 63 +19 +19 1035.0 1029.1
16 13.09 СВ 4 40 км н/о +17.8 +10.9 64 +18 +18 1035.2 1029.3
17 13.09 СВ 4 40 км н/о +16.9 +10.8 67 +17 +17 1035.3 1029.3
18 13.09 СВ 4 40 км н/о +15.3 +9.9 70 +14 +14 1035.6 1029.6 +18.8
19 13.09 В 3 40 км н/о +13.8 +9.4 75 +13 +13 1035.9 1029.9
20 13.09 СВ 3 45 км н/о +13.5 +9.7 78 +13 +13 1036.1 1030.0
21 13.09 СВ 3 40 км н/о +13.3 +9.5 78 +12 +12 1036.3 1030.3
22 13.09 СВ 3 45 км н/о +13.1 +9.6 79 +12 +12 1036.2 1030.2
23 13.09 СВ 3 40 км н/о +13.4 +9.7 78 +12 +12 1036.0 1030.0
00 14.09 СВ 3 40 км н/о +12.7 +9.8 83 +11 +11 1035.8 1029.8
01 14.09 СВ 3 40 км н/о +12.9 +9.2 78 +12 +12 1035.4 1029.4
02 14.09 СВ 3 45 км н/о +12.3 +8.8 79 +11 +11 1035.3 1029.2
03 14.09 СВ 3 45 км н/о +12.3 +8.7 79 +11 +11 1034.9 1028.9
04 14.09 СВ 2 45 км н/о +11.0 +8.6 85 +10 +10 1034.6 1028.5
05 14.09 СВ 2 45 км н/о +10.9 +9.0 88 +9 +9 1034.3 1028.3
06 14.09 СВ 2 50 км н/о +10.8 +9.5 92 +10 +10 1034.4 1028.4 +10.5
07 14.09 СВ 2 40 км н/о +12.7 +11.2 91 +12 +12 1034.3 1028.3
08 14.09 В 3 30 км н/о +17.3 +12.7 74 +17 +17 1034.1 1028.1
09 14.09 В 3 30 км н/о +17.7 +11.3 66 +18 +18 1033.9 1028.0
10 14.09 В 3 35 км н/о +18.8 +11.4 62 +20 +20 1033.4 1027.5
11 14.09 В 3 26 км н/о +19.3 +11.4 60 +21 +21 комфорт 1033.1 1027.2
12 14.09 СВ 4 40 км н/о +20.3 +12.8 62 +23 +23 комфорт 1032.6 1026.7
13 14.09 В 2 40 км н/о +20.1 +10.8 55 +22 +22 комфорт 1032.1 1026.3
14 14.09 В 3 50 км н/о +19.9 +10.8 56 +22 +22 комфорт 1031.3 1025.4
15 14.09 СВ 3 45 км н/о +19.5 +11.1 58 +21 +21 комфорт 1030.4 1024.5
16 14.09 В 4 30 км н/о +18.9 +11.4 62 +20 +20 1029.8 1023.9
17 14.09 ЮВ 3 40 км н/о +17.8 +11.0 64 +18 +18 1029.4 1023.5
18 14.09 ЮВ 2 35 км н/о +15.6 +11.9 79 +15 +15 1029.2 1023.3 +21.0
19 14.09 ЮВ 3 40 км н/о +14.0 +11.7 86 +13 +13 1029.3 1023.3
20 14.09 ЮВ 3 30 км н/о +14.3 +12.3 88 +13 +13 1028.8 1022.9
21 14.09 Ю 3 29 км н/о +13.8 +12.4 91 +13 +13 1028.6 1022.6
22 14.09 ЮЗ 2 8000 м дым н/о +12.2 +10.9 92 +11 +11 1028.3 1022.3
23 14.09 Ю 3 13 км н/о +12.8 +11.9 94 +12 +12 1027.4 1021.4
00 15.09 ЮЗ 3 27 км н/о +12.1 +10.6 91 +10 +10 1027.1 1021.1
01 15.09 ЮЗ 4 21 км н/о +11.8 +10.3 91 +10 +10 1026.8 1020.8
02 15.09 ЮЗ 4 40 км н/о +11.1 +9.1 87 +9 +9 1026.2 1020.2
03 15.09 ЮЗ 4 35 км н/о +10.9 +9.3 90 +8 +8 1025.9 1019.9
04 15.09 ЮЗ 5 27 км н/о +11.1 +9.5 90 +8 +8 1025.3 1019.3
05 15.09 З 4 15 км н/о +11.0 +9.3 89 +8 +8 1025.2 1019.2
06 15.09 ЮЗ 5 24 км н/о +11.6 +9.5 87 +9 +9 1025.1 1019.1 +10.3
07 15.09 З 3 40 км н/о +12.4 +9.8 84 +11 +11 1025.0 1019.0
08 15.09 З 4 45 км н/о +16.2 +11.3 73 +15 +15 1025.1 1019.2
09 15.09 З 4 40 км н/о +18.0 +9.3 57 +18 +18 1025.1 1019.3
10 15.09 З 5 50 км н/о +19.5 +7.9 47 +20 +20 1025.1 1019.2
11 15.09 СЗ 4 26 км н/о +20.7 +10.4 52 +23 +23 комфорт 1024.9 1019.1
12 15.09 СЗ 3 40 км н/о +22.0 +12.2 54 +24 +24 комфорт 1024.5 1018.7
13 15.09 З 2 35 км н/о +22.3 +13.1 56 +25 +25 комфорт 1024.1 1018.4
14 15.09 С 3 35 км н/о +23.7 +13.1 51 +26 +26 жарко 1023.6 1017.8
15 15.09 ЮВ 5 40 км н/о +22.0 +11.8 52 +24 +24 комфорт 1023.1 1017.3
16 15.09 ЮВ 5 45 км н/о +22.1 +12.1 53 +24 +24 комфорт 1022.6 1016.8
17 15.09 Ю 4 50 км н/о +21.9 +11.9 53 +24 +24 комфорт 1022.3 1016.6
18 15.09 Ю 4 50 км н/о +20.1 +11.4 57 +22 +22 комфорт 1022.4 1016.5 +24.0
19 15.09 Ю 4 50 км н/о +18.4 +11.8 65 +19 +19 1022.4 1016.6
20 15.09 Ю 4 50 км н/о +17.7 +11.5 67 +18 +18 1022.4 1016.5
21 15.09 Ю 4 50 км н/о +17.0 +11.9 72 +17 +17 1022.2 1016.3
22 15.09 Ю 4 45 км н/о +16.6 +12.4 76 +16 +16 1022.0 1016.2
23 15.09 ЮЗ 5 50 км н/о +16.7 +12.8 78 +16 +16 1021.8 1015.9
00 16.09 З 4 50 км н/о +16.4 +12.6 78 +16 +16 1021.7 1015.8
01 16.09 СЗ 3 50 км н/о +16.8 +13.5 81 +17 +17 1021.6 1015.7
02 16.09 СЗ 2 45 км н/о +16.6 +14.6 88 +17 +17 1021.3 1015.4
03 16.09 СЗ 2 13 км н/о +16.6 +15.3 92 +17 +17 1020.8 1015.0
04 16.09 СЗ 3 13 км н/о +16.6 +15.6 94 +16 +16 1020.6 1014.7
05 16.09 С 3 18 км н/о +16.6 +15.5 93 +16 +16 1020.6 1014.7
06 16.09 СЗ 2 16 км н/о +16.5 +15.5 94 +17 +17 1020.6 1014.8 +15.9
07 16.09 З 2 24 км н/о +16.8 +15.8 94 +17 +17 1020.9 1015.0
08 16.09 З 2 22 км н/о +17.2 +15.6 90 +17 +17 1021.2 1015.4
09 16.09 З 3 30 км н/о +17.7 +15.2 85 +18 +18 1021.5 1015.6
10 16.09 З 4 45 км н/о +18.1 +14.6 80 +18 +18 1021.5 1015.7
11 16.09 СЗ 5 45 км н/о +18.4 +14.4 78 +19 +19 1021.6 1015.7
12 16.09 СЗ 5 40 км н/о +19.0 +14.1 73 +20 +20 1021.6 1015.7
13 16.09 СЗ 3 40 км н/о +18.9 +14.4 75 +20 +20 1021.5 1015.7
14 16.09 С 4 45 км н/о +18.3 +14.1 76 +19 +19 1021.6 1015.8
15 16.09 С 4 40 км н/о +17.5 +14.9 85 +17 +17 1021.7 1015.8
16 16.09 С 4 6000 м слаб. морось н/о +16.4 +15.5 94 +16 +16 1021.6 1015.7
17 16.09 СВ 4 17 км в посл. час морось н/о +15.7 +15.0 96 +15 +15 1021.8 1015.9
18 16.09 СВ 3 45 км н/о +15.4 +14.4 94 +15 +15 1022.2 1016.3 +19.3 0.6
19 16.09 СВ 3 40 км н/о +15.1 +13.9 93 +14 +14 1022.3 1016.4
20 16.09 СВ 3 50 км н/о +14.9 +13.6 92 +14 +14 1022.7 1016.8
21 16.09 С 2 45 км н/о +14.8 +13.5 92 +14 +14 1022.9 1017.0
22 16.09 С 3 45 км н/о +14.9 +13.2 90 +14 +14 1023.1 1017.2
23 16.09 СВ 3 13 км н/о +14.5 +13.1 91 +13 +13 1023.1 1017.2
00 17.09 С 2 30 км н/о +14.5 +13.0 91 +14 +14 1022.8 1016.9 0.2
01 17.09 С 1 45 км н/о +14.2 +12.4 89 +14 +14 1022.9 1017.0
02 17.09 СЗ 2 45 км н/о +14.0 +11.6 85 +14 +14 1022.7 1016.8
03 17.09 С 2 45 км н/о +14.1 +11.3 83 +14 +14 1022.8 1016.8
04 17.09 СЗ 2 45 км н/о +13.4 +10.8 84 +13 +13 1022.8 1016.8
05 17.09 СЗ 4 25 км н/о +13.3 +11.1 87 +12 +12 1022.9 1016.9
06 17.09 СЗ 3 15 км н/о +12.2 +10.6 90 +11 +11 1023.2 1017.2 +12.2 0.2
07 17.09 СЗ 4 25 км н/о +13.1 +11.2 88 +11 +11 1023.6 1017.7
08 17.09 СЗ 4 35 км н/о +13.1 +10.4 84 +11 +11 1024.3 1018.3
09 17.09 СЗ 6 35 км н/о +14.2 +10.2 77 +12 +12 1024.7 1018.7
10 17.09 СЗ 5 35 км н/о +14.9 +9.0 68 +13 +13 1024.6 1018.7
11 17.09 С 6 40 км н/о +15.7 +8.5 62 +14 +14 1024.8 1018.9
12 17.09 С 6 30 км н/о +16.1 +7.8 58 +15 +15 1025.2 1019.3
13 17.09 СЗ 5 30 км н/о +15.9 +7.3 57 +15 +15 1025.2 1019.3
14 17.09 С 4 35 км н/о +16.6 +7.8 56 +16 +16 1025.3 1019.4
15 17.09 СВ 5 30 км н/о +16.0 +7.7 58 +15 +15 1025.4 1019.5
16 17.09 С 5 30 км н/о +16.1 +7.1 55 +15 +15 1025.5 1019.6
17 17.09 СВ 5 50 км н/о +15.8 +7.9 59 +15 +15 1025.7 1019.8
18 17.09 СВ 5 40 км н/о +14.3 +7.9 65 +13 +13 1026.1 1020.1 +17.2
19 17.09 СВ 6 35 км н/о +14.1 +6.9 62 +12 +12 1026.7 1020.7
20 17.09 СВ 5 50 км н/о +13.5 +5.4 58 +12 +12 1026.9 1020.9
21 17.09 С 5 40 км н/о +13.0 +5.1 59 +11 +11 1027.4 1021.4
22 17.09 С 5 45 км н/о +12.3 +5.2 62 +10 +10 1027.8 1021.8
23 17.09 С 4 35 км н/о +11.7 +6.1 68 +10 +10 1027.9 1021.9
00 18.09 С 3 30 км н/о +11.3 +6.3 71 +10 +10 1027.9 1021.9
01 18.09 С 4 29 км н/о +11.7 +6.9 72 +10 +10 1028.0 1022.0
02 18.09 С 4 30 км н/о +11.5 +7.0 74 +10 +10 1027.8 1021.8
03 18.09 С 4 30 км н/о +11.9 +7.4 74 +10 +10 1027.9 1021.9
04 18.09 С 3 35 км н/о +11.1 +7.1 76 +9 +9 1027.9 1021.9
05 18.09 С 4 35 км н/о +12.2 +7.9 75 +10 +10 1028.1 1022.1
06 18.09 С 5 35 км н/о +12.3 +7.7 73 +10 +10 1028.7 1022.6 +10.7
07 18.09 С 4 30 км н/о +13.0 +8.4 74 +11 +11 1029.1 1023.1
08 18.09 С 6 45 км н/о +14.1 +8.3 68 +12 +12 1029.5 1023.5
09 18.09 С 6 35 км н/о +14.8 +8.2 65 +13 +13 1029.9 1024.0
10 18.09 С 6 20 км н/о +15.5 +7.6 59 +14 +14 1029.9 1024.0
11 18.09 С 6 30 км н/о +16.2 +7.7 57 +15 +15 1029.9 1024.0
12 18.09 С 6 35 км н/о +16.3 +6.6 53 +15 +15 1029.9 1023.9
13 18.09 С 5 40 км н/о +15.8 +6.3 53 +15 +15 1029.7 1023.7
14 18.09 С 5 25 км н/о +15.9 +6.4 53 +15 +15 1029.6 1023.7
15 18.09 СВ 5 50 км н/о +16.2 +5.6 49 +15 +15 1029.4 1023.5
16 18.09 СВ 5 40 км н/о +15.6 +6.7 55 +14 +14 1029.2 1023.3
17 18.09 СВ 5 30 км н/о +15.2 +7.0 58 +14 +14 1029.3 1023.3

 

Местоположение метеостанции Кент (Великобритания): широта 51.35 долгота 1.37 высота над уровнем моря 43.9 м.

В архиве по умолчанию представлена погода в Кент за последнюю неделю. Архивные данные за месяц целиком и за предыдущие месяцы, начиная с января 2011 года, Вы можете получить, выбрав интересующий диапазон дат из раскрывающегося списка и нажав кнопку "Ввод!".


*Определитесь, кто Вы:
робот инопланетянин человек

Внимание! Время в таблицах - всемирное. Для получения местного времени необходимо прибавить поправку, которая равна 0 ч.

Смотрите также архив погоды в соседних городах и на ближайших метеорологических станциях:

Погода в Заливе Лангдон (Великобритания) (25 км)
Погода в Шоберинессе (Великобритания) (44 км)
Погода в Булонь-сюр-Мере (Франция) (71 км)
Погода в Дюнкерке (Франция) (75 км)
Погода в Грейвзенде (Великобритания) (75 км)
Погода в Ротамстеде (Великобритания) (86 км)
Погода на Аэродроме Andrewsfield (Великобритания) (87 км)
Погода в Херстмонсо (Великобритания) (89 км)
Погода в Уоттишаме (Великобритания) (90 км)
Погода в Ле-Туке-Пари-Плаже (Франция) (94 км)

Пояснения к столбцам:

Ветер - указаны скорость ветра в м/с - средняя за 10 мин, порывы в срок и между сроками (в фигурных скобках) и направление, откуда дует ветер: С - северный, СВ - северо-восточный, В - восточный, ЮВ - юго-восточный, Ю - южный, ЮЗ - юго-западный, З - западный, СЗ - северо-западный.
Видимость - горизонтальная дальность видимости в метрах или километрах. При видимости от 1 до 10 км при отсутствии осадков обычно наблюдается дымка, при ухудшении видимости до 1 км и менее - туман. В сухую погоду видимость может ухудшаться дымом, пылью или мглою.
Явления - указаны атмосферные явления, наблюдавшиеся в срок или в последний час перед сроком; фигурными скобками обозначены явления, наблюдавшиеся между сроками (за 1-3 часа до срока); квадратными скобками обозначены град или гололедные отложения с указанием их диаметра в мм.
Облачность - указаны через наклонную черту общая и нижняя облачность в баллах и высота нижней границы облаков в метрах; квадратными скобками обозначены формы облаков: Ci - перистые, Cs - перисто-слоистые, Cc - перисто-кучевые, Ac - высококучевые, As - высокослоистые, Sc - слоисто-кучевые, Ns - слоисто-дождевые, Cu - кучевые, Cb - кучево-дождевые. Подробнее классификацию облаков см. в Атласе облаков (PDF).
T - Температура воздуха - температура, измеренная на высоте 2 м над землей.
Td - Температура точки росы - температура, при понижении до которой содержащийся в воздухе водяной пар достигнет насыщения.
f - Относительная влажность воздуха - влажноcть воздуха, измеренная на высоте 2 м над землей.
Te - Эффективная температура - температура, которую ощущает одетый по сезону человек в тени. Характеристика душности погоды. При расчете учитывается влияние влажности воздуха и скорости ветра на теплоощущения человека.
Tes - Эффективная температура на солнце - температура, которую ощущает человек, с поправкой на солнечный нагрев. Характеристика знойности погоды. Зависит от высоты солнца над горизонтом, облачности и скорости ветра. Ночью, в пасмурную погоду, а также при ветре 12 м/с и более поправка равна нулю.
P - Атмосферное давление - приведенное к уровню моря атмосферное давление.
Po - Атмосферное давление - измеренное на уровне метеостанции атмосферное давление.
Tmin - Минимальная температура - минимум температуры воздуха на высоте 2 м над землей.
Tmax - Максимальная температура - максимум температуры воздуха на высоте 2 м над землей.
R - Количество осадков - Количество выпавших осадков за период времени, мм. При наведении курсора мыши на число - период времени, за который выпало указанное количество осадков.
R24 - Количество осадков - Количество выпавших осадков за 24 часа, мм.
S - Снежный покров - Высота снежного покрова, см. При наведении курсора мыши на число - состояние снежного покрова и степень покрытия местности в баллах.